Location: Bowden
(51.9167°N, 114.0333°W)
Time: 15:18:34
(UTC+00:00)

N. Korean satellite - Visible Passes

Search period start: 02 December 2021 00:00
Search period end: 12 December 2021 00:00
Orbit: 447 x 495 km, 97.3° (Epoch: 01 December)

Date Brightness Start Highest point End Pass type
(mag) Time Alt. Az. Time Alt. Az. Time Alt. Az.
02 Dec 9.3 00:45:29 10° SSW 00:48:21 23° W 00:51:12 10° NW visible
02 Dec 9.3 12:04:46 10° NE 12:07:10 18° E 12:09:32 10° SE visible
02 Dec 6.8 13:37:20 10° N 13:40:32 38° WNW 13:43:42 10° SW visible
03 Dec 7.8 00:16:17 10° S 00:19:42 46° W 00:23:06 10° NNW visible
03 Dec 6.2 13:08:41 10° NNE 13:12:06 83° WNW 13:15:28 10° SSW visible
04 Dec 7.5 12:40:16 10° NNE 12:43:32 43° E 12:46:47 10° S visible
04 Dec 7.9 14:14:11 10° NNW 14:16:27 17° WNW 14:18:43 10° WSW visible
05 Dec 9.6 00:53:29 10° SW 00:56:04 19° W 00:58:38 10° NW visible
05 Dec 9.0 12:12:11 10° NE 12:14:51 21° E 12:17:31 10° SE visible
05 Dec 7.1 13:45:04 10° N 13:48:08 31° WNW 13:51:10 10° SW visible
06 Dec 8.2 00:24:04 10° SSW 00:27:22 37° W 00:30:38 10° NNW visible
06 Dec 9.9 11:45:10 10° ENE 11:46:03 11° E 11:46:55 10° ESE visible
06 Dec 6.2 13:16:18 10° N 13:19:41 67° WNW 13:23:02 10° SSW visible
07 Dec 7.1 12:47:46 10° NNE 12:51:07 54° E 12:54:26 10° S visible
07 Dec 8.1 14:22:01 10° NNW 14:23:57 14° WNW 14:25:51 10° W visible
08 Dec 9.7 01:01:29 10° SW 01:03:41 16° W 01:05:53 10° NW visible
08 Dec 8.6 12:19:33 10° NE 12:22:26 25° E 12:25:19 10° SSE visible
08 Dec 7.3 13:52:43 10° N 13:55:36 26° WNW 13:58:29 10° SW visible
09 Dec 8.6 00:31:47 10° SSW 00:34:55 30° W 00:38:02 10° NNW visible
09 Dec 9.7 11:51:59 10° ENE 11:53:37 13° E 11:55:17 10° ESE visible
09 Dec 6.4 13:23:50 10° N 13:27:10 54° WNW 13:30:29 10° SSW visible
10 Dec 7.0 00:02:48 10° S 00:06:16 66° W 00:09:42 10° NNW visible
10 Dec 7.5 12:55:13 10° NNE 13:00:14 28° S 13:01:58 10° S visible
10 Dec 8.3 14:29:51 10° NNW 14:31:19 12° WNW 14:31:25 12° WNW visible
11 Dec 9.8 01:09:31 10° WSW 01:11:13 13° W 01:12:55 10° WNW visible
11 Dec 9.0 12:26:51 10° NNE 12:32:03 16° SSE 12:32:58 10° SSE visible
11 Dec 7.9 14:00:17 10° NNW 14:06:10 - WSW 14:01:53 19° NW visible
